Flight Information

DEPARTURE
GRAND JUNCTION, CO
Elevation:
4861
Runways:
11/29 - 10503x150 - ASPH-E
4/22 - 5501x75 - ASPH-G
ATIS:
118.55
Ground:
121.7
Tower:
GRAND JUNCTION TOWER 118.1
DESTINATION
,
Elevation:
TPA:
1000 (est.)


6256 NM78° True-13° Var64° HDG

Flight Plan:
(click to file on line)

1. Type
2. Aircraft Identification
3. Aircraft Type / Special Equipment
4. True Airspeed
kts
5. Departure Airport
(ICAO code)
6. Arriving Airport
(ICAO code)
7. Cruising Altitude
ft
8. Alternate Airport
(ICAO code)
9. Route of Flight
10. Remarks


00:00:00 Departure ATIS: Destination ATIS:

Clearance Limit:
Route:
Altitude: Expect in minutes
Frequency:
Transponder: (7500 Hijack / 7600 Lost Comms / 7700 Emergency)


KGJT 050453Z AUTO 00000KT 10SM FEW070 BKN090 02/M03 A3001 RMK AO2 SLP161 T00171028
Time: 2022-12-05T04:53:00Z
1670650404
Winds: calm
Visibility: 10.0 sm
Clouds (AGL): FEW 7000
BKN 9000
Temperature: 1.7 C
Dew Point: -2.8 C
Pressure: 30.008858 in Hgbr


Notes:

Data extracted from FAA Digital Chart Supplement. Effective: 0901Z Thursday, 27 JAN 2022 to 0900z Thursday, 24 MAR 2022
Current ATIS data is provided courtisy of PilotEdge.